Regional Weather Roundup
Issued by NWS

Home | Current Version | Previous Version | Text Only | Print | Product List | Glossary Off
Versions: 1 2 3 4 5 6 7 8 9 10 11 12 13 14 15 16 17 18 19 20 21 22 23 24 25 26 27 28 29 30 31 32 33 34 35 36 37 38 39 40 41 42 43 44 45 46 47 48 49 50

000
ASUS43 KFSD 222002
RWRSD

WEATHER ROUNDUP FOR SOUTH DAKOTA
NATIONAL WEATHER SERVICE SIOUX FALLS SD
300 PM CDT TUE MAY 22 2018

NOTE: "FAIR" INDICATES FEW OR NO CLOUDS BELOW 12,000 FEET WITH NO
SIGNIFICANT WEATHER AND/OR OBSTRUCTIONS TO VISIBILITY.


SDZ001>005-009-010-012>017-222100-
NORTHWEST AND NORTH CENTRAL SOUTH DAKOTA

CITY           SKY/WX    TMP DP  RH WIND       PRES   REMARKS
BUFFALO          N/A     79  51  37 VRB3      29.87F
FAITH            N/A     79  60  52 SE10      29.92F
MOBRIDGE       SUNNY     83  57  41 S7        29.90F
$$

SDZ012>016-024>037-041>051-057-063-072>074-222100-
SOUTHWEST AND SOUTH CENTRAL SOUTH DAKOTA

CITY           SKY/WX    TMP DP  RH WIND       PRES   REMARKS
RAPID CTY ARPT MOSUNNY   78  56  46 E8G18     29.93F
PIERRE         SUNNY     81  64  56 SE12G24   29.89F
CUSTER         MOSUNNY   71  44  37 E13       30.04F
ELLSWORTH AFB  MOSUNNY   78  55  45 SE6       29.93F
PHILIP         MOSUNNY   81  61  50 SE10      29.90F
PINE RIDGE     MOSUNNY   84  52  33 E10       29.91F
SPEARFISH      FAIR      73  57  56 VRB7G14   29.98F
WINNER         FAIR      81  65  58 SE13      29.92F
$$

SDZ004>011-016>023-039-040-222100-
NORTHEAST SOUTH DAKOTA

CITY           SKY/WX    TMP DP  RH WIND       PRES   REMARKS
ABERDEEN       MOSUNNY   85  53  33 SE7       29.92F
WATERTOWN      SUNNY     79  54  41 SE6       29.97F
BROOKINGS      SUNNY     79  57  46 S13G20    29.97F
SISSETON         N/A     81  54  39 VRB5      29.95F
$$

SDZ017-020-022-023-036>040-048>070-222100-
SOUTHEAST SOUTH DAKOTA

CITY           SKY/WX    TMP DP  RH WIND       PRES   REMARKS
SIOUX FALLS    PTSUNNY   78  65  63 SE15G22   29.96F
HURON          SUNNY     82  57  42 S12G25    29.93F
CHAMBERLAIN    MOSUNNY   82  66  56 SE14G21   29.92S
MITCHELL       MOSUNNY   81  64  56 SE15      29.93F
YANKTON        PTSUNNY   77  65  66 SE15      29.94F
$$

ABBREVIATIONS USED IN REMARKS
   TC - TEMPERATURE IN CELSIUS
  WCI - WIND CHILL INDEX
   HX - HEAT INDEX
  VSB - VISIBILITY





USA.gov is the U.S. government's official web portal to all federal, state and local government web resources and services.